Weather History for Memphis, TN

Change the Weather History Date:

Monday, February 24, 2014

  Actual Average Record
Temperature  
Mean Temperature 42 °F 48 °F  
Max Temperature 51 °F 57 °F 79 °F (1890)
Min Temperature 32 °F 39 °F 17 °F (1914)
Degree Days  
Heating Degree Days 23 17  
Month to date heating degree days 562 482  
Since 1 July heating degree days 2723 2384  
Cooling Degree Days 0 0  
Month to date cooling degree days 0 0  
Year to date cooling degree days 0 1  
Moisture  
Dew Point 18 °F    
Average Humidity 42    
Maximum Humidity 59    
Minimum Humidity 24    
Precipitation  
Precipitation T in 0.16 in 1.90 in (1926)
Month to date precipitation 4.82 3.74  
Year to date precipitation 7.98 7.72  
Snow  
Snow 0.00 in 0.00 in 4.00 in (1960)
Month to date snowfall 0.3 1.2  
Since 1 July snowfall 0.3 3.3  
Snow Depth 0.00 in    
Sea Level Pressure  
Sea Level Pressure 30.21 in    
Wind  
Wind Speed 11 mph (NE)    
Max Wind Speed 21 mph    
Max Gust Speed 25 mph    
Visibility 10 miles    
Events Rain    
T = Trace of Precipitation, MM = Missing Value Source: NWS Daily Summary

Daily Weather History Graph

Daily Weather History Graph

Search for Another Location

Airport:

Trip Planner

Search our weather history database for the weather conditions in past years. The results will help you decide how hot, cold, wet, or windy it might be!

Date:

Astronomy

Feb. 24, 2014 Rise Set
Actual Time 6:35 AM CST 5:51 PM CST
Civil Twilight 6:10 AM CST 6:16 PM CST
Nautical Twilight 5:40 AM CST 6:46 PM CST
Astronomical Twilight 5:11 AM CST 7:15 PM CST
Moon 2:27 AM CST (2/24) 12:59 PM CST (2/24)
Length of Visible Light 12h 06m
Length of Day
11h 15m
Waning Crescent, 28% of the Moon is Illuminated
Feb 24
Waning Crescent
Mar 1
New
Mar 8
First Quarter
Mar 16
Full
Mar 23
Last Quarter

Hourly Weather History & Observations

Time (CST) Temp. Windchill Dew Point Humidity Pressure Visibility Wind Dir Wind Speed Gust Speed Precip Events Conditions
12:54 AM 37.9 °F 30.5 °F 19.9 °F 48% 30.22 in 10.0 mi NE 11.5 mph - N/A   Partly Cloudy
1:54 AM 37.0 °F 28.1 °F 18.0 °F 46% 30.22 in 10.0 mi NE 15.0 mph - N/A   Clear
2:54 AM 35.1 °F 26.4 °F 17.1 °F 48% 30.23 in 10.0 mi NE 12.7 mph - N/A   Clear
3:54 AM 34.0 °F 24.2 °F 18.0 °F 52% 30.22 in 10.0 mi NE 15.0 mph - N/A   Clear
4:54 AM 33.1 °F 23.4 °F 19.0 °F 56% 30.25 in 10.0 mi NE 13.8 mph 18.4 mph N/A   Clear
5:54 AM 32.0 °F 23.6 °F 19.0 °F 59% 30.26 in 10.0 mi NE 10.4 mph - N/A   Clear
6:54 AM 32.0 °F 22.5 °F 19.0 °F 59% 30.27 in 10.0 mi NE 12.7 mph - N/A   Clear
7:54 AM 34.0 °F 23.4 °F 18.0 °F 52% 30.30 in 10.0 mi NE 17.3 mph 23.0 mph N/A   Partly Cloudy
8:54 AM 37.0 °F 28.1 °F 15.1 °F 41% 30.30 in 10.0 mi East 15.0 mph 24.2 mph N/A   Partly Cloudy
9:54 AM 39.9 °F 32.1 °F 15.1 °F 36% 30.28 in 10.0 mi East 13.8 mph - N/A   Partly Cloudy
10:54 AM 44.1 °F 39.5 °F 15.1 °F 31% 30.30 in 10.0 mi ENE 8.1 mph - N/A   Partly Cloudy
11:54 AM 46.0 °F 42.5 °F 15.1 °F 29% 30.28 in 10.0 mi Variable 6.9 mph - N/A   Partly Cloudy
12:54 PM 48.0 °F - 16.0 °F 28% 30.25 in 10.0 mi North 8.1 mph - N/A   Scattered Clouds
1:54 PM 50.0 °F - 16.0 °F 26% 30.22 in 10.0 mi NNE 9.2 mph - N/A   Mostly Cloudy
2:54 PM 50.0 °F - 18.0 °F 28% 30.19 in 10.0 mi ENE 12.7 mph - N/A   Mostly Cloudy
3:54 PM 50.0 °F - 19.0 °F 29% 30.17 in 10.0 mi ENE 8.1 mph - N/A   Mostly Cloudy
4:54 PM 48.9 °F - 19.0 °F 31% 30.17 in 10.0 mi NE 11.5 mph - N/A   Mostly Cloudy
5:54 PM 46.9 °F - 19.9 °F 34% 30.16 in 10.0 mi ENE 9.2 mph - N/A   Mostly Cloudy
6:54 PM 46.9 °F - 19.9 °F 34% 30.16 in 10.0 mi NE 6.9 mph - N/A   Mostly Cloudy
7:54 PM 46.0 °F 43.9 °F 19.9 °F 35% 30.14 in 10.0 mi NE 4.6 mph - N/A   Mostly Cloudy
8:54 PM 46.9 °F - 19.9 °F 34% 30.14 in 10.0 mi NE 6.9 mph - N/A   Overcast
9:54 PM 46.0 °F 41.9 °F 19.9 °F 35% 30.13 in 10.0 mi ENE 8.1 mph - N/A   Overcast
10:54 PM 46.0 °F 41.9 °F 19.9 °F 35% 30.12 in 10.0 mi NE 8.1 mph - 0.00 in Rain Light Rain
11:07 PM 46.4 °F 42.4 °F 21.2 °F 37% 30.12 in 10.0 mi NE 8.1 mph - 0.00 in   Overcast
11:54 PM 46.0 °F 41.9 °F 19.9 °F 35% 30.11 in 10.0 mi ENE 8.1 mph - 0.00 in   Overcast